Regional Weather Roundup
Issued by NWS

Home | Current Version | Previous Version | Graphics & Text | Print | Product List | Glossary On
Versions: 1 2 3 4 5 6 7 8 9 10 11 12 13 14 15 16 17 18 19 20 21 22 23 24 25 26 27 28
000
ASUS45 KTFX 180710
RWRMT
MONTANA REGIONAL WEATHER ROUNDUP
NATIONAL WEATHER SERVICE GREAT FALLS MT
100 AM MDT FRI AUG 18 2017

NOTE: "FAIR" INDICATES FEW OR NO CLOUDS BELOW 12000 FEET WITH NO
SIGNIFICANT WEATHER AND/OR OBSTRUCTIONS TO VISIBILITY.

MTZ001>007-043-180800-
WEST OF THE DIVIDE

CITY           SKY/WX    TMP DP  RH WIND       PRES   REMARKS
KALISPELL      PTCLDY    53  42  66 CALM      30.05R
MISSOULA       CLOUDY    63  41  44 CALM      30.10R
BUTTE          CLOUDY    53  36  52 SE3       30.23R
MULLAN PASS    CLEAR     56  36  47 VRB3      30.23F
ANACONDA         N/A     57  36  44 W8        30.18S
DEER LODGE       N/A     55  39  54 CALM      30.19R
EUREKA           N/A     63  43  48 MISG      30.02S
HAMILTON         N/A     57  41  54 CALM      30.12S
LIBBY            N/A     55  43  62 CALM      30.04S
RONAN            N/A     54  46  74 CALM      30.12S
$$

MTZ008-052>055-180800-
SOUTHWEST MONTANA

CITY           SKY/WX    TMP DP  RH WIND       PRES   REMARKS
BOZEMAN        CLEAR     54  42  64 SE7       30.14R
DILLON         CLEAR     58  35  42 S8        30.18R
W YELLOWSTONE  CLEAR     48  37  66 W5        30.28R
ENNIS          PTCLDY    52  39  62 E6        30.24R
THREE FORKS      N/A     51  38  61 CALM      30.11R
$$

MTZ009-010-012-014-046-048-049-054-180800-
EAST SLOPES AND CENTRAL MONTANA

CITY           SKY/WX    TMP DP  RH WIND       PRES   REMARKS
CUT BANK       CLEAR     56  39  53 W12       30.03S
GREAT FALLS    CLEAR     60  35  39 N7        30.04S
MALMSTROM AFB  CLEAR     58  36  44 S8        30.04S
HELENA         CLEAR     69  39  33 W5        30.08F
AUGUSTA          N/A     58  32  37 W7        30.09R
BOWMANS CRNR     N/A     60  35  38 SW5       30.08R
CHOTEAU          N/A     61  36  39 SW5       30.07S
FAIRFIELD        N/A     61  37  40 NW3       30.05S
POWER            N/A     56  33  41 CALM      30.05S
RAYNESFORD       N/A     57  37  48 E5        30.08R
ULM              N/A     57  36  45 CALM      30.05R
$$

MTZ011-013-016-021-045-047-050-051-180800-
NORTH CENTRAL MONTANA

CITY           SKY/WX    TMP DP  RH WIND       PRES   REMARKS
HAVRE          CLOUDY    57  39  51 SE3       29.98S
LEWISTOWN      CLOUDY    54  36  50 SE7       30.08S
N BAR RANCH    MOCLDY    59  32  36 W12       30.12S
CHINOOK          N/A     61  41  48 CALM      29.98S
DENTON           N/A     57  35  43 S9        30.02R
GEYSER           N/A     57  36  44 W10       30.07R
GRASS RANGE      N/A     56  34  43 W6        30.03S
JUDITH GAP       N/A     53  33  46 S13       30.11S
WINIFRED       MOCLDY    69  34  27 SE8       30.04S
$$

MTZ017>020-022>027-061-062-180800-
NORTHEAST MONTANA

CITY           SKY/WX    TMP DP  RH WIND       PRES   REMARKS
GLASGOW        PTCLDY    64  44  48 E5        29.96R
JORDAN           N/A     55  35  47 W5        29.98R
SIDNEY         PTCLDY    62  53  72 NW8       29.93S
WOLF POINT     CLEAR     59  43  55 N6        29.95R
MALTA          PTCLDY    55  48  76 CALM      29.98R
PLENTYWOOD       N/A     63  52  67 CALM      29.95R
POPLAR           N/A     59  54  82 N10       29.98R
$$

MTZ028>42-056>058-180800-
SOUTHCENTRAL AND SOUTHEAST MONTANA

CITY           SKY/WX    TMP DP  RH WIND       PRES   REMARKS
BAKER          CLOUDY    62  43  49 CALM      29.99R
BILLINGS       PTCLDY    71  36  27 SW3       30.05S
LIVINGSTON     CLEAR     49  39  68 W5        30.14R
MILES CITY     PTCLDY    63  42  46 NW6       29.98R
BIG TIMBER     MOCLDY    59  36  41 W10       30.15R
FORSYTH          N/A     66  39  37 CALM      29.98S
HARLOWTON        N/A     58  33  39 MISG      30.10S
LAUREL           N/A     62  34  35 CALM      30.04F
$$

REGIONAL REPORTS...DAKOTAS

CITY           SKY/WX    TMP DP  RH WIND       PRES   REMARKS
WILLISTON      CLEAR     56  52  86 N3        29.92S
MINOT          LGT RAIN  63  60  90 S6        29.88F
DICKINSON      CLEAR     55  49  80 NW6       29.93R
BEACH          MOCLDY    54  52  94 CALM      30.00S
CROSBY           N/A     57  55  94 NW6       29.92S
TIOGA            N/A     55  55 100 W6        29.94R
WATFORD CITY     N/A     55  52  88 S5        29.91F
BISMARCK       CLEAR     63  58  83 CALM      29.86R
GRAND FORKS    CLOUDY    59  58  96 S3        29.82S
FARGO          PTCLDY    62  59  90 CALM      29.85R
BUFFALO SD       N/A     60  44  55 NW9       29.91S
RAPID CITY     CLEAR     60  47  61 W7        30.00R
$$

REGIONAL REPORTS...WYOMING/IDAHO/WASHINGTON

CITY           SKY/WX    TMP DP  RH WIND       PRES   REMARKS
GILLETTE       CLOUDY    62  44  51 SW10      30.09R
SHERIDAN       PTCLDY    61  41  47 CALM      30.08R
BUFFALO WY     PTCLDY    61  35  37 W8        30.14R
CODY           CLEAR     62  40  44 SW6       30.18R
YELLOWSTONE LA   N/A     41  37  86 NW3       30.37S
IDAHO FALLS    CLEAR     59  37  44 SW7       30.16R
SALMON         CLEAR     58  41  53 CALM      30.14R
BOISE          CLEAR     68  37  32 SE8       30.05R
SPOKANE        CLEAR     65  41  41 SW5       30.05S
$$

REGIONAL REPORTS...ALBERTA

CITY           SKY/WX    TMP DP  RH WIND       PRES   REMARKS
EDMONTON       MOCLDY    59  52  77 SW6       29.90S
CALGARY        CLEAR     54  46  76 N3        29.98S SMOKE
LETHBRIDGE     CLEAR     59  41  51 SW9       29.96S
MEDICINE HAT   CLEAR     57  46  67 SE3       29.94F
$$

REGIONAL REPORTS...SASKATCHEWAN

CITY           SKY/WX    TMP DP  RH WIND       PRES   REMARKS
SWIFT CURRENT  CLEAR     54  45  71 SW7       29.98R
REGINA         CLEAR     50  45  81 NW5       29.92S
SASKATOON      CLEAR     52  48  87 W7        29.93R
$$




USA.gov is the U.S. government's official web portal to all federal, state and local government web resources and services.